Location: Sungai Kamana Besar
(2.6333°N, 113.4333°E)
Time: 06:42:30
(UTC+00:00)

PAYLOAD A - Pass Details

Date: 29 May 2022
Orbit: 574 x 36090 km, 7.3° (Epoch: 28 June)

Event Time Altitude Azimuth Distance (km) Brightness Sun altitude
Exits shadow 20:08:17 66° 296° (WNW) 1,267 4.3 -30.0°
Maximum altitude 20:09:16 82° 9° (N) 1,334 4.6 -29.8°
Drops below altitude 10° 20:32:47 10° 96° (E) 10,386 10.0 -24.5°
Sets 21:07:32 0° 97° (E) 19,920 11.7 -16.6°
